Vorticity
6 6 5 6 9 6 7 12 7 6 10 13 8 8 11 10 9 9 10 8 7 6 5 6 7 6 0 11 9 5 5 3 7 7 9 9 9 10 8 8 9 13 9 7 7 7 6
7 8 5 8 4 5 9 7 7 8 7 7 9 11 9 6 6 8 8 9 8 7 6 6 4 6 10 2 3 5 7 7 6 6 7 7 9 9 11 10 7 8 7 12 9 8 7
8 7 8 5 7 9 4 2 5 6 5 6 7 7 8 7 7 7 7 7 6 5 6 5 3 6 8 13 7 7 5 6 7 5 9 8 9 5 5 12 -1 10 13 4 13 14 4
14 13 9 8 6 6 7 10 8 4 4 4 5 6 6 5 5 5 6 6 5 5 7 10 10 7 8 7 6 5 6 6 8 7 4 3 4 6 6 3 8 9 10 11 -15 -16 8
4 10 14 14 10 8 7 5 6 9 11 5 5 5 3 5 6 7 7 7 7 7 6 5 3 4 3 6 5 6 8 7 9 6 4 10 4 2 5 4 30 4 1 5 22 9 6
4 5 6 9 15 13 9 9 8 7 6 8 14 11 6 7 6 4 4 3 4 5 3 10 3 8 6 8 5 7 6 5 4 6 6 14 10 1 7 4 -1 -10 4 -1 4 -7 -3
4 3 3 6 7 11 15 11 8 7 9 8 8 8 14 17 7 9 8 6 15 14 15 20 9 7 11 -6 8 7 7 9 6 9 2 14 9 3 6 7 4 3 7 8 9 2 12
3 4 2 3 5 7 9 14 15 10 8 5 10 8 7 7 16 12 7 9 13 0 1 6 5 8 16 2 10 6 9 13 8 10 4 14 -3 6 9 7 5 8 14 10 21 -11 37
4 3 2 3 4 4 7 8 10 13 14 11 8 6 8 11 12 14 16 3 -5 -6 3 11 -3 12 8 20 -6 0 10 12 7 4 19 13 -9 10 11 7 3 5 7 11 -4 19 22
5 4 2 1 5 5 6 7 9 12 13 13 10 12 7 4 10 13 14 16 17 -8 2 -5 11 -5 7 24 -13 -0 7 9 10 -1 25 8 7 10 4 9 3 33 3 9 8 29 11
5 4 3 2 3 3 4 5 7 6 13 14 16 14 8 9 10 8 14 19 25 17 2 14 -3 -1 15 6 14 -3 7 10 20 4 5 4 10 12 13 2 7 -15 12 11 35 25 16
5 5 4 4 3 3 3 3 4 6 7 11 18 15 14 12 10 10 14 12 12 5 -12 -1 7 8 14 0 13 -1 5 14 19 19 -15 18 12 -4 13 6 10 16 10 40 22 20 11
4 4 4 4 4 5 5 3 2 3 5 8 6 2 16 15 14 12 12 17 -3 13 9 -4 2 15 8 0 12 2 4 20 5 27 -1 14 10 -14 -9 10 12 13 38 13 15 11 -2
3 4 4 4 3 4 3 3 3 3 5 7 6 5 16 8 13 16 11 12 15 4 3 9 8 16 9 6 6 3 6 16 1 -1 35 2 8 5 -2 3 9 7 13 21 13 9 -5
5 4 3 2 3 3 2 3 4 4 4 6 8 4 8 6 4 8 18 15 2 9 5 4 18 14 4 1 21 12 19 9 1 -3 26 14 5 13 6 1 23 5 1 10 17 15 16
6 6 6 5 5 4 4 3 4 5 3 4 5 5 2 13 -3 7 8 14 14 7 7 10 11 7 6 5 11 9 21 2 19 -9 18 -10 26 6 -7 23 0 16 -0 11 10 9 19
7 7 6 6 5 5 5 6 5 4 4 5 4 12 2 5 4 6 9 5 10 6 5 16 4 16 2 5 5 12 9 13 -6 -11 11 16 4 -24 6 7 4 12 4 9 24 7 7
7 7 6 6 6 6 6 6 6 6 5 5 5 13 4 -2 18 -1 3 2 15 0 4 12 10 1 8 7 9 28 -8 10 -10 21 8 4 22 2 16 23 26 4 3 7 8 11 7
8 7 6 6 6 6 5 6 6 6 5 4 5 10 4 1 12 -1 5 0 19 -2 5 3 7 4 10 2 21 -1 11 -26 35 -12 -15 -2 -13 23 13 18 -16 -10 -7 -7 15 19 29
5 5 6 5 5 5 5 5 5 4 5 6 8 3 10 28 -9 5 5 22 -3 10 11 9 4 15 2 -2 15 3 -12 10 -13 -5 14 14 8 1 -30 -27 -10 -2 7 13 13 14 -7
4 5 4 4 5 4 4 5 4 5 6 8 6 3 1 -13 13 5 9 3 16 4 15 13 13 3 0 19 -3 17 -4 -12 7 3 14 20 -5 10 8 6 6 18 20 28 7 12 -9
4 4 4 4 5 5 7 6 7 7 9 8 9 10 10 6 10 5 6 6 9 23 14 -2 1 14 7 -8 -7 -3 3 4 2 -5 22 3 6 1 2 42 17 5 -6 22 29 43 22
7 7 7 6 5 5 7 9 9 10 11 8 6 9 9 8 8 9 9 7 -1 -1 17 13 -11 -10 4 15 12 8 7 7 6 5 3 8 2 3 -2 2 -2 54 63 4 -5 20 30
8 7 10 11 10 11 11 12 9 10 9 9 7 9 9 6 7 12 7 7 10 9 6 14 17 16 6 7 7 10 21 27 23 27 22 13 4 17 9 30 27 12 41 -48 22 5 -19
12 11 14 12 11 11 10 10 11 10 9 10 9 8 10 10 8 7 13 9 12 7 9 17 8 20 18 16 9 39 16 46 33 15 24 28 32 -8 -4 12 -32 27 65 37 2 -15 14
19 18 16 12 12 10 10 10 9 7 9 11 10 8 8 4 11 2 2 10 17 18 11 18 14 14 -5 11 26 19 7 -1 24 9 -0 12 50 6 13 7 5 -14 -13 -29 5 29 39
-2 1 7 10 8 6 6 8 10 10 7 10 12 12 10 9 9 18 11 -1 9 21 11 8 6 9 12 18 25 25 24 0 22 4 6 9 16 7 5 -1 6 -9 17 14 30 3 -29
17 11 7 7 11 10 9 9 8 11 11 12 9 13 12 11 4 17 37 10 6 8 12 -1 13 38 30 19 11 12 14 4 9 10 9 13 7 -0 27 4 19 62 16 -2 -16 0 -46
20 13 9 13 12 16 18 18 18 16 15 13 11 11 12 8 -9 11 9 1 2 17 21 14 4 1 -20 -13 -18 3 -10 -16 -23 -15 -6 18 4 -25 -16 -34 -30 -54 -39 29 -24 19 17
Height
3143 3139 3136 3132 3128 3123 3119 3116 3112 3111 3109 3108 3107 3108 3109 3111 3113 3113 3115 3118 3120 3122 3125 3128 3130 3131 3133 3134 3136 3137 3137 3137 3137 3137 3137 3137 3137 3135 3134 3132 3130 3128 3126 3124 3122 3119 3114
3151 3145 3142 3139 3136 3132 3128 3124 3121 3118 3116 3115 3115 3115 3115 3116 3118 3119 3121 3123 3125 3127 3129 3131 3133 3133 3135 3136 3137 3136 3137 3138 3138 3138 3138 3137 3135 3133 3131 3129 3128 3125 3123 3121 3119 3115 3109
3156 3153 3148 3144 3142 3139 3136 3133 3129 3126 3124 3122 3122 3122 3122 3123 3124 3125 3127 3128 3130 3131 3132 3134 3135 3136 3136 3138 3137 3138 3138 3138 3138 3137 3136 3136 3134 3133 3129 3126 3125 3122 3119 3118 3115 3111 3105
3163 3159 3155 3151 3147 3144 3142 3140 3138 3135 3133 3130 3128 3128 3128 3129 3130 3130 3132 3133 3133 3134 3135 3137 3138 3138 3138 3138 3138 3138 3137 3137 3136 3136 3135 3133 3131 3129 3127 3125 3121 3118 3115 3113 3109 3106 3098
3169 3165 3162 3158 3155 3151 3148 3146 3144 3142 3140 3138 3137 3136 3135 3135 3134 3134 3135 3135 3136 3137 3139 3139 3140 3139 3139 3139 3139 3138 3138 3137 3136 3134 3132 3130 3128 3127 3124 3121 3118 3115 3113 3109 3104 3099 3094
3175 3171 3167 3163 3159 3157 3155 3152 3150 3148 3146 3144 3143 3142 3141 3140 3139 3139 3139 3140 3140 3141 3141 3141 3140 3142 3141 3140 3139 3137 3136 3135 3133 3132 3130 3127 3125 3123 3121 3119 3118 3114 3109 3105 3102 3097 3090
3180 3176 3172 3169 3165 3162 3159 3156 3154 3152 3150 3149 3148 3146 3145 3144 3143 3143 3142 3142 3145 3144 3140 3140 3141 3140 3139 3139 3137 3136 3136 3134 3131 3130 3127 3124 3123 3123 3120 3117 3114 3111 3106 3100 3098 3093 3083
3182 3180 3177 3173 3170 3166 3163 3160 3158 3155 3153 3151 3150 3148 3147 3145 3144 3144 3143 3143 3143 3144 3143 3141 3141 3140 3139 3139 3139 3137 3135 3133 3129 3126 3124 3124 3122 3119 3116 3114 3111 3108 3103 3100 3093 3090 3083
3185 3182 3180 3178 3174 3170 3167 3164 3161 3158 3156 3154 3152 3149 3148 3147 3146 3145 3144 3144 3144 3143 3143 3144 3142 3141 3140 3139 3137 3135 3133 3130 3127 3125 3123 3121 3121 3117 3115 3112 3109 3106 3101 3097 3092 3083 3079
3188 3185 3182 3179 3177 3175 3171 3167 3164 3161 3158 3156 3153 3151 3149 3147 3147 3145 3144 3143 3143 3144 3145 3147 3144 3142 3140 3137 3136 3133 3130 3129 3125 3124 3120 3120 3117 3116 3113 3111 3108 3101 3098 3091 3087 3084 3082
3190 3188 3185 3183 3180 3176 3174 3170 3168 3164 3161 3157 3154 3152 3150 3148 3146 3145 3144 3142 3143 3146 3146 3148 3143 3141 3138 3138 3136 3132 3129 3126 3124 3122 3122 3120 3115 3113 3112 3110 3106 3103 3096 3087 3084 3082 3081
3190 3188 3186 3184 3182 3180 3176 3173 3170 3166 3163 3160 3157 3154 3152 3150 3147 3146 3143 3142 3143 3147 3145 3145 3143 3140 3138 3136 3134 3132 3129 3126 3123 3121 3120 3117 3115 3114 3111 3108 3104 3099 3092 3084 3082 3081 3081
3189 3188 3185 3183 3182 3180 3179 3176 3172 3169 3166 3162 3160 3157 3153 3150 3148 3146 3144 3144 3146 3144 3148 3145 3141 3138 3137 3136 3133 3131 3129 3126 3125 3122 3119 3117 3114 3113 3110 3106 3103 3101 3093 3088 3084 3081 3078
3188 3187 3185 3183 3181 3180 3178 3176 3174 3170 3168 3164 3161 3158 3155 3152 3150 3147 3146 3145 3144 3146 3144 3142 3140 3137 3136 3134 3132 3130 3127 3125 3124 3123 3119 3117 3113 3112 3110 3108 3105 3101 3100 3099 3097 3088 3083
3187 3185 3184 3182 3181 3179 3177 3175 3172 3170 3168 3166 3162 3160 3157 3154 3151 3148 3148 3146 3147 3145 3144 3141 3139 3136 3136 3134 3132 3129 3127 3125 3124 3122 3123 3118 3114 3111 3108 3106 3105 3101 3101 3101 3098 3094 3091
3184 3183 3182 3181 3180 3178 3176 3174 3172 3169 3167 3165 3163 3160 3158 3155 3152 3149 3148 3145 3145 3144 3143 3141 3138 3137 3135 3133 3131 3128 3125 3125 3123 3122 3120 3119 3113 3109 3107 3104 3103 3102 3101 3100 3099 3094 3083
3180 3180 3179 3178 3177 3176 3174 3173 3171 3168 3166 3163 3161 3159 3157 3155 3152 3150 3147 3145 3143 3142 3140 3140 3137 3135 3133 3131 3129 3127 3126 3124 3122 3121 3119 3116 3116 3111 3106 3103 3101 3100 3099 3099 3100 3098 3094
3177 3175 3174 3174 3173 3172 3171 3169 3168 3167 3164 3162 3160 3158 3155 3152 3152 3148 3146 3144 3142 3140 3138 3136 3134 3132 3131 3129 3127 3125 3124 3123 3121 3119 3117 3115 3112 3107 3105 3100 3098 3098 3097 3097 3097 3096 3093
3171 3170 3169 3168 3167 3166 3165 3164 3163 3161 3159 3158 3156 3154 3152 3149 3147 3145 3143 3141 3139 3137 3135 3133 3131 3129 3127 3126 3126 3122 3120 3119 3117 3116 3114 3112 3109 3105 3100 3100 3096 3094 3093 3092 3092 3091 3085
3164 3163 3163 3163 3162 3161 3159 3158 3157 3156 3154 3153 3150 3148 3145 3144 3142 3141 3138 3136 3135 3132 3130 3128 3127 3125 3123 3122 3121 3119 3118 3115 3113 3111 3109 3105 3102 3103 3100 3097 3095 3090 3087 3084 3084 3082 3077
3159 3157 3156 3155 3155 3154 3153 3152 3151 3150 3149 3148 3145 3143 3140 3139 3136 3135 3134 3132 3129 3127 3126 3124 3122 3121 3119 3118 3115 3113 3111 3110 3107 3106 3103 3101 3093 3092 3088 3086 3084 3078 3072 3073 3070 3066 3066
3151 3150 3149 3148 3147 3147 3146 3144 3143 3142 3141 3141 3140 3138 3135 3133 3131 3129 3127 3125 3123 3121 3121 3120 3118 3115 3114 3112 3112 3105 3105 3105 3100 3097 3096 3093 3085 3082 3075 3077 3072 3064 3059 3056 3056 3054 3050
3143 3143 3143 3142 3140 3138 3137 3137 3135 3135 3134 3131 3129 3127 3127 3127 3124 3122 3120 3117 3115 3114 3114 3113 3112 3109 3107 3105 3102 3098 3096 3093 3091 3090 3089 3087 3081 3078 3067 3070 3067 3056 3046 3046 3046 3044 3043
3134 3133 3133 3132 3132 3130 3129 3127 3126 3126 3126 3125 3122 3120 3118 3116 3116 3116 3112 3113 3109 3107 3104 3103 3103 3102 3101 3095 3091 3087 3083 3080 3079 3077 3079 3075 3075 3074 3065 3066 3060 3049 3046 3043 3041 3041 3039
3124 3124 3124 3123 3122 3121 3120 3118 3118 3117 3117 3116 3114 3111 3108 3104 3107 3107 3105 3103 3101 3100 3098 3095 3096 3094 3091 3088 3083 3077 3074 3070 3067 3066 3066 3067 3069 3067 3065 3060 3048 3045 3040 3039 3037 3036 3032
3115 3114 3115 3115 3113 3112 3112 3111 3109 3108 3108 3107 3106 3104 3101 3096 3095 3097 3096 3095 3093 3091 3090 3088 3086 3085 3085 3082 3080 3077 3072 3068 3065 3062 3060 3060 3060 3061 3059 3056 3046 3040 3038 3036 3033 3031 3026
3106 3106 3106 3105 3104 3104 3103 3102 3101 3100 3098 3098 3097 3096 3094 3088 3086 3088 3089 3087 3086 3084 3081 3080 3079 3077 3077 3075 3074 3072 3066 3064 3060 3059 3057 3057 3055 3052 3051 3046 3036 3036 3034 3032 3033 3031 3022
3097 3097 3096 3097 3096 3094 3093 3093 3092 3090 3088 3089 3089 3087 3086 3080 3079 3078 3080 3079 3077 3077 3074 3074 3071 3069 3070 3070 3068 3066 3059 3057 3054 3052 3051 3051 3049 3047 3044 3041 3032 3027 3027 3029 3025 3018 3011
3086 3086 3085 3085 3085 3086 3084 3084 3083 3082 3080 3078 3079 3077 3077 3073 3072 3071 3068 3069 3068 3069 3068 3065 3067 3063 3063 3063 3062 3059 3055 3049 3048 3043 3047 3042 3041 3040 3039 3026 3027 3023 3020 3019 3014 3008 3002